Regional Weather Roundup
Issued by NWS Sioux Falls, SD

Home | Current Version | Previous Version | Text Only | Print | Product List | Glossary On
Versions: 1 2 3 4 5 6 7 8 9 10 11 12 13 14 15 16 17 18 19 20 21 22 23 24 25 26 27 28 29 30 31 32 33 34 35 36 37 38 39 40 41 42 43 44 45 46 47 48 49 50
000
ASUS43 KFSD 040910
RWRFSD

WEATHER ROUNDUP FOR SE SOUTH DAKOTA/SW MINNESOTA/NW IOWA
NATIONAL WEATHER SERVICE SIOUX FALLS SD
300 AM CST WED MAR 04 2015

NOTE: "FAIR" INDICATES FEW OR NO CLOUDS BELOW 12,000 FEET WITH NO
SIGNIFICANT WEATHER AND OR OBSTRUCTIONS TO VISIBILITY.


SDZ038>040-050-052>070-041000-
SOUTHEAST SOUTH DAKOTA

CITY           SKY/WX    TMP DP  RH WIND       PRES   REMARKS
CHAMBERLAIN    CLEAR      0  -6  74 W6        30.14F WCI -12
HURON          CLEAR     -4  -7  87 S5        30.15F WCI -15
MADISON        FAIR       0  -4  85 NW7       30.12S WCI -13
MITCHELL       CLEAR      3  -1  83 SW3       30.18S
SIOUX FALLS    CLEAR      2  -3  80 CALM      30.15S
WINNER         FAIR       5  -6  60 W10       30.13F WCI -10
YANKTON        PTCLDY     9   0  66 W6        30.20S WCI  -1
$$

MNZ071-072-080-081-089-090-097-098-041000-
SOUTHWEST MINNESOTA

CITY           SKY/WX    TMP DP  RH WIND       PRES   REMARKS
FAIRMONT       CLEAR      5  -6  61 NW15      30.10F WCI -13
JACKSON        PTCLDY     3  -6  66 NW9       30.11S WCI -11
LUVERNE        CLEAR      1  -6  71 CALM      30.16R
MARSHALL       CLEAR      0  -9  65 NW12      30.13S WCI -18
MONTEVIDEO     CLEAR      0  -8  71 NW7       30.13S WCI -13
PIPESTONE      PTCLDY    -2  -8  78 W7        30.10S WCI -16
REDWOOD FALLS  CLEAR      0  -8  69 W10       30.12S WCI -16
TRACY          CLEAR      2  -6  69 W7        30.12S WCI -11
WINDOM         CLEAR      0  -8  71 W5        30.12S WCI -10
WORTHINGTON    CLEAR      1  -8  66 W9        30.13S WCI -14
$$

IAZ001>003-012>014-020>022-031-032-NEZ013-014-SDZ071-041000-
NORTHWEST IOWA

CITY           SKY/WX    TMP DP  RH WIND       PRES   REMARKS
CHEROKEE       MOCLDY    11   2  66 NW8       30.16F WCI   0
DENISON        CLOUDY    12   3  67 NW9       30.15F WCI   0
ESTHERVILLE    PTCLDY     5  -4  66 NW12      30.12F WCI -11
LE MARS        MOCLDY     9   5  85 W3        30.19S
ORANGE CITY    PTCLDY     7   0  72 CALM      30.15F
SHELDON        PTCLDY     5  -2  72 NW7       30.14S WCI  -7
SIOUX CITY     MOCLDY    16   6  65 N8        30.19S WCI   5
SPENCER        PTCLDY     7  -3  64 NW9       30.14F WCI  -7
STORM LAKE     MOCLDY    10   1  67 NW14      30.14S WCI  -5
$$

ABBREVIATIONS USED IN REMARKS
   TC - TEMPERATURE IN CELSIUS
  WCI - WIND CHILL INDEX
   HX - HEAT INDEX
  VSB - VISIBILITY




USA.gov is the U.S. government's official web portal to all federal, state and local government web resources and services.